Location: Alladorf
(49.9620°N, 11.3790°E)
Time: 20:14:19
(UTC+00:00)

Cosmos 1328 Rocket - Pass Details

Date: 29 November 2020
Orbit: 601 x 627 km, 82.5° (Epoch: 24 January)

Event Time Altitude Azimuth Distance (km) Brightness Sun altitude
Exits shadow 04:35:39 42° 233° (SW) 897 4.0 -20.6°
Drops below altitude 10° 04:39:05 10° 193° (SSW) 1,995 6.1 -20.1°
Sets 04:41:22 0° 188° (S) 2,899 7.0 -19.7°
